Weather History for KCMX - October, 2013

Change the Weather History Date:

Saturday, October 19, 2013

  Actual Average Record
Temperature  
Mean Temperature 38 °F -  
Max Temperature 46 °F 48 °F 73 °F (2000)
Min Temperature 30 °F 34 °F 24 °F (1989)
Degree Days  
Heating Degree Days 27    
Moisture  
Dew Point 32 °F    
Average Humidity 81    
Maximum Humidity 93    
Minimum Humidity 63    
Precipitation  
Precipitation 0.01 in - - ()
Sea Level Pressure  
Sea Level Pressure 29.71 in    
Wind  
Wind Speed 2 mph (West)    
Max Wind Speed 12 mph    
Max Gust Speed -    
Visibility 10 miles    
Events Rain    
Averages and records for this station are not official NWS values.
T = Trace of Precipitation, MM = Missing Value Source: NWS Daily Summary

Daily Weather History Graph

Daily Weather History Graph

Search for Another Location

Airport or City:

Trip Planner

Search our weather history database for the weather conditions in past years. The results will help you decide how hot, cold, wet, or windy it might be!

Date:

Astronomy

Oct. 19, 2013 Rise Set
Actual Time 8:18 AM EDT 6:58 PM EDT
Civil Twilight 7:47 AM EDT 7:29 PM EDT
Nautical Twilight 7:11 AM EDT 8:05 PM EDT
Astronomical Twilight 6:36 AM EDT 8:40 PM EDT
Moon 7:21 PM EDT (10/19) 8:59 AM EDT (10/19)
Length of Visible Light 11h 42m
Length of Day
10h 40m
Waxing Gibbous, 99% of the Moon is Illuminated
Oct 19
Waxing Gibbous
Oct 26
Last Quarter
Nov 3
New
Nov 10
First Quarter
Nov 17
Full

Hourly Weather History & Observations

Time (EDT) Temp. Windchill Dew Point Humidity Pressure Visibility Wind Dir Wind Speed Gust Speed Precip Events Conditions
12:53 AM 30.0 °F - 28.0 °F 92% 29.83 in 10.0 mi Calm Calm - N/A   Clear
1:53 AM 33.1 °F - 28.9 °F 85% 29.81 in 10.0 mi Calm Calm - N/A   Scattered Clouds
2:53 AM 36.0 °F - 30.9 °F 82% 29.81 in 10.0 mi Calm Calm - N/A   Overcast
3:53 AM 36.0 °F 33.3 °F 30.0 °F 79% 29.79 in 10.0 mi SW 3.5 mph - N/A   Overcast
4:53 AM 36.0 °F - 30.0 °F 79% 29.77 in 10.0 mi Calm Calm - 0.00 in   Scattered Clouds
5:53 AM 34.0 °F - 28.9 °F 82% 29.76 in 10.0 mi Calm Calm - N/A   Mostly Cloudy
6:53 AM 34.0 °F 29.8 °F 32.0 °F 92% 29.75 in 10.0 mi SSW 4.6 mph - N/A   Partly Cloudy
7:53 AM 33.1 °F - 28.9 °F 85% 29.74 in 10.0 mi Calm Calm - N/A   Clear
8:53 AM 34.0 °F 31.0 °F 30.0 °F 85% 29.75 in 10.0 mi SSW 3.5 mph - N/A   Scattered Clouds
9:48 AM 37.4 °F 33.8 °F 32.0 °F 81% 29.70 in 10.0 mi SSW 4.6 mph - N/A   Overcast
9:53 AM 37.0 °F 34.5 °F 32.0 °F 82% 29.73 in 10.0 mi South 3.5 mph - N/A   Overcast
10:01 AM 37.4 °F 34.9 °F 33.8 °F 87% 29.70 in 10.0 mi SSW 3.5 mph - N/A   Overcast
10:53 AM 39.9 °F - 35.1 °F 83% 29.72 in 10.0 mi Calm Calm - N/A   Overcast
11:53 AM 43.0 °F 39.5 °F 35.1 °F 74% 29.71 in 10.0 mi SSE 5.8 mph - N/A   Overcast
12:53 PM 44.1 °F - 33.1 °F 65% 29.69 in 10.0 mi Calm Calm - N/A   Mostly Cloudy
1:53 PM 46.0 °F - 34.0 °F 63% 29.67 in 10.0 mi Calm Calm - 0.00 in   Mostly Cloudy
2:32 PM 44.6 °F 43.1 °F 33.8 °F 66% 29.63 in 10.0 mi North 3.5 mph - N/A   Overcast
2:53 PM 43.0 °F 36.8 °F 36.0 °F 76% 29.66 in 5.0 mi WNW 11.5 mph - 0.01 in Rain Light Rain
3:11 PM 42.8 °F 37.0 °F 37.4 °F 81% 29.63 in 10.0 mi NW 10.4 mph - 0.00 in Rain Light Rain
3:53 PM 43.0 °F 40.3 °F 36.0 °F 76% 29.66 in 10.0 mi West 4.6 mph - 0.00 in Rain Light Rain
4:53 PM 44.1 °F 41.5 °F 35.1 °F 71% 29.66 in 10.0 mi WNW 4.6 mph - 0.00 in   Clear
5:53 PM 43.0 °F 40.3 °F 34.0 °F 71% 29.67 in 10.0 mi NW 4.6 mph - N/A   Clear
6:22 PM 44.6 °F 41.4 °F 33.8 °F 66% 29.64 in 10.0 mi WNW 5.8 mph - N/A   Mostly Cloudy
6:45 PM 39.2 °F 35.0 °F 33.8 °F 81% 29.65 in 10.0 mi WNW 5.8 mph - N/A   Partly Cloudy
6:53 PM 37.9 °F 32.7 °F 32.0 °F 79% 29.69 in 10.0 mi NW 6.9 mph - N/A   Clear
7:53 PM 37.0 °F - 32.0 °F 82% 29.70 in 10.0 mi Calm Calm - N/A   Clear
8:53 PM 33.1 °F - 30.0 °F 89% 29.71 in 10.0 mi Calm Calm - N/A   Mostly Cloudy
9:26 PM 30.2 °F - 28.4 °F 93% 29.67 in 10.0 mi Calm Calm - N/A   Mostly Cloudy
9:49 PM 33.8 °F - 30.2 °F 87% 29.67 in 10.0 mi Calm Calm - N/A   Scattered Clouds
9:53 PM 33.1 °F - 30.9 °F 92% 29.71 in 10.0 mi Calm Calm - N/A   Partly Cloudy
10:50 PM 32.0 °F - 30.2 °F 93% 29.68 in 10.0 mi Calm Calm - N/A   Mostly Cloudy
10:53 PM 32.0 °F - 30.0 °F 92% 29.71 in 10.0 mi Calm Calm - N/A   Mostly Cloudy
11:03 PM 33.8 °F - 30.2 °F 87% 29.68 in 9.0 mi Calm Calm - N/A   Scattered Clouds
11:53 PM 33.1 °F - 30.9 °F 92% 29.70 in 5.0 mi Calm Calm - N/A   Partly Cloudy